Tracking 26258 objects as of 3-Oct-2022
HD Live streaming from Space Station
objects crossing your sky now

STARLINK-4768

Track STARLINK-4768 now!
10-day predictions
STARLINK-4768 is classified as:


NORAD ID: 53806
Int'l Code: 2022-111AK
Perigee: 356.5 km
Apogee: 357.7 km
Inclination: 53.2 °
Period: 91.5 minutes
Semi major axis: 6728 km
RCS: Unknown
Launch date: September 11, 2022
Source: United States (US)
Launch site: AIR FORCE EASTERN TEST RANGE (AFETR)
aabbcc
Your satellite tracking list
Your tracking list is empty




NASA's NSSDC Master Catalog

Two Line Element Set (TLE):
1 53806U 22111AK  22275.91667824  .00060715  00000-0  43499-3 0  9991
2 53806  53.2170 158.9086 0000907 132.6867  35.0669 15.73140993  1303
Source of the keplerian elements: AFSPC